Weather History for Rhinelander, WI

Change the Weather History Date:

Friday, January 18, 2013

  Actual Average Record
Temperature  
Mean Temperature 12 °F 12 °F  
Max Temperature 29 °F 21 °F 46 °F (1996)
Min Temperature -5 °F 3 °F -36 °F (1948)
Degree Days  
Heating Degree Days 53 53  
Month to date heating degree days 851 949  
Since 1 July heating degree days 4281 4575  
Cooling Degree Days 0 0  
Month to date cooling degree days 0 0  
Year to date cooling degree days 0 0  
Moisture  
Dew Point 11 °F    
Average Humidity 79    
Maximum Humidity 88    
Minimum Humidity 69    
Precipitation  
Precipitation 0.09 in 0.04 in 1.36 in (1996)
Month to date precipitation 0.26 0.66  
Year to date precipitation 0.26 0.66  
Snow  
Snow 1.20 in - 5.00 in (1969)
Month to date snowfall 1.7  
Since 1 July snowfall 19.4  
Snow Depth 2.00 in    
Sea Level Pressure  
Sea Level Pressure 29.96 in    
Wind  
Wind Speed 4 mph (South)    
Max Wind Speed 14 mph    
Max Gust Speed 20 mph    
Visibility 6 miles    
Events Snow    
T = Trace of Precipitation, MM = Missing Value Source: NWS Daily Summary

Daily Weather History Graph

Daily Weather History Graph

Search for Another Location

Airport:

Trip Planner

Search our weather history database for the weather conditions in past years. The results will help you decide how hot, cold, wet, or windy it might be!

Date:

Astronomy

Jan. 18, 2013 Rise Set
Actual Time 7:32 AM CST 4:44 PM CST
Civil Twilight 6:59 AM CST 5:17 PM CST
Nautical Twilight 6:23 AM CST 5:54 PM CST
Astronomical Twilight 5:47 AM CST 6:29 PM CST
Moon 10:45 AM CST (1/18) No Moon Set
Length of Visible Light 10h 18m
Length of Day
9h 12m
Waxing Crescent, 47% of the Moon is Illuminated
Jan 18
Waxing Crescent
Jan 18
First Quarter
Jan 26
Full
Feb 3
Last Quarter
Feb 10
New

Hourly Weather History & Observations

Time (CST) Temp. Windchill Dew Point Humidity Pressure Visibility Wind Dir Wind Speed Gust Speed Precip Events Conditions
12:53 AM -4.0 °F - -9.0 °F 79% 30.37 in 10.0 mi Calm Calm - N/A   Clear
1:53 AM 1.0 °F -6.7 °F -4.0 °F 79% 30.37 in 10.0 mi SSW 3.5 mph - N/A   Scattered Clouds
2:53 AM 3.0 °F -4.4 °F -2.0 °F 80% 30.35 in 10.0 mi SSW 3.5 mph - N/A   Overcast
3:53 AM 3.9 °F - -0.9 °F 80% 30.30 in 10.0 mi Calm Calm - N/A   Overcast
4:53 AM 6.1 °F -0.9 °F 1.0 °F 80% 30.27 in 10.0 mi South 3.5 mph - N/A   Overcast
5:33 AM 6.8 °F -0.1 °F 1.4 °F 79% 30.13 in 2.5 mi South 3.5 mph - 0.00 in Snow Light Snow
5:45 AM 6.8 °F -2.0 °F 1.4 °F 79% 30.14 in 1.5 mi South 4.6 mph - 0.00 in Snow Light Snow
5:53 AM 7.0 °F -3.3 °F 1.9 °F 80% 30.25 in 1.2 mi South 5.8 mph - 0.00 in Snow Light Snow
6:53 AM 7.0 °F -3.3 °F 3.0 °F 84% 30.20 in 1.2 mi SSE 5.8 mph - 0.02 in Snow Light Snow
7:11 AM 8.6 °F -2.6 °F 3.2 °F 79% 30.07 in 1.2 mi SSE 6.9 mph - 0.01 in Snow Light Snow
7:20 AM 8.6 °F -2.6 °F 3.2 °F 79% 30.06 in 1.2 mi SSE 6.9 mph - 0.01 in Snow Light Snow
7:36 AM 8.6 °F -2.6 °F 3.2 °F 79% 30.05 in 1.0 mi SSE 6.9 mph - 0.02 in Snow Light Snow
7:53 AM 8.1 °F -3.2 °F 3.0 °F 80% 30.15 in 1.0 mi Variable 6.9 mph - 0.03 in Snow Light Snow
8:01 AM 8.6 °F -3.7 °F 3.2 °F 79% 30.02 in 0.8 mi SE 8.1 mph - 0.00 in Snow Light Snow
8:48 AM 8.6 °F -4.7 °F 5.0 °F 85% 29.97 in 1.0 mi SE 9.2 mph - 0.02 in Snow Light Snow
8:53 AM 9.0 °F -4.2 °F 5.0 °F 84% 30.09 in 1.2 mi SSE 9.2 mph - 0.02 in Snow Light Snow
9:02 AM 10.4 °F -2.4 °F 5.0 °F 79% 29.95 in 3.0 mi SSE 9.2 mph - 0.00 in Snow Light Snow
9:43 AM 12.2 °F -1.0 °F 6.8 °F 79% 29.93 in 7.0 mi South 10.4 mph - 0.00 in   Overcast
9:53 AM 12.9 °F -0.2 °F 7.0 °F 77% 30.05 in 7.0 mi South 10.4 mph - 0.00 in   Overcast
10:18 AM 14.0 °F 0.5 °F 8.6 °F 79% 29.91 in 1.8 mi South 11.5 mph 19.6 mph 0.00 in Snow Light Snow
10:53 AM 15.1 °F 2.5 °F 10.0 °F 80% 30.00 in 1.8 mi South 10.4 mph 17.3 mph 0.00 in Snow Light Snow
11:01 AM 15.8 °F 3.4 °F 10.4 °F 79% 29.87 in 3.0 mi South 10.4 mph - 0.00 in   Haze
11:53 AM 18.0 °F 6.9 °F 12.0 °F 78% 29.93 in 5.0 mi South 9.2 mph - 0.00 in   Haze
12:53 PM 19.9 °F 12.1 °F 14.0 °F 78% 29.88 in 10.0 mi South 5.8 mph - N/A   Overcast
1:53 PM 24.1 °F 18.2 °F 17.1 °F 75% 29.85 in 10.0 mi SW 4.6 mph - N/A   Overcast
2:28 PM 26.6 °F 21.2 °F 19.4 °F 74% 29.73 in 10.0 mi SSW 4.6 mph - N/A   Mostly Cloudy
2:53 PM 28.0 °F 24.2 °F 19.9 °F 72% 29.82 in 10.0 mi SSW 3.5 mph - N/A   Mostly Cloudy
3:53 PM 28.9 °F - 21.0 °F 72% 29.80 in 10.0 mi Calm Calm - N/A   Overcast
4:53 PM 28.9 °F - 21.9 °F 75% 29.79 in 10.0 mi Calm Calm - N/A   Overcast
5:49 PM 26.6 °F - 21.2 °F 80% 29.71 in 10.0 mi Calm Calm - N/A   Overcast
5:53 PM 26.1 °F - 21.9 °F 84% 29.80 in 10.0 mi Calm Calm - N/A   Overcast
6:19 PM 24.8 °F 20.5 °F 19.4 °F 80% 29.70 in 10.0 mi SE 3.5 mph - N/A   Mostly Cloudy
6:53 PM 27.0 °F - 21.9 °F 81% 29.77 in 10.0 mi Calm Calm - N/A   Mostly Cloudy
7:33 PM 26.6 °F - 21.2 °F 80% 29.69 in 10.0 mi Calm Calm - N/A   Overcast
7:53 PM 27.0 °F - 21.9 °F 81% 29.78 in 8.0 mi Calm Calm - N/A   Overcast
8:51 PM 26.6 °F - 21.2 °F 80% 29.68 in 8.0 mi Calm Calm - N/A   Overcast
8:53 PM 26.1 °F - 21.0 °F 81% 29.77 in 8.0 mi Calm Calm - N/A   Overcast
9:48 PM 26.6 °F 21.2 °F 21.2 °F 80% 29.69 in 9.0 mi West 4.6 mph - N/A   Overcast
9:53 PM 25.0 °F 18.1 °F 21.0 °F 85% 29.77 in 9.0 mi West 5.8 mph - N/A   Mostly Cloudy
10:53 PM 23.0 °F - 19.9 °F 88% 29.77 in 9.0 mi Calm Calm - N/A   Scattered Clouds
11:53 PM 25.0 °F - 21.9 °F 88% 29.77 in 9.0 mi Calm Calm - N/A   Overcast